Dewpoint
42 42 41 42 42 42 42 43 43 43 44 44 45 46 46 47 47 46 44 42 36 32 33 38 38 39 39 38 35 38 39 39 39 36 32 30 30 31 33 33 31 30 30 30 32 30 27 21 22 24 27 25 23 23
42 42 42 42 43 42 43 43 43 43 44 44 45 45 46 47 47 46 43 43 40 33 31 37 37 37 38 39 37 40 36 38 38 36 35 33 33 36 34 30 34 31 32 30 31 31 28 35 33 31 28 25 26 29
42 42 42 43 43 43 43 43 43 43 44 44 45 45 46 46 47 46 43 42 40 35 34 35 35 37 37 39 40 39 40 40 41 41 39 37 35 35 33 33 34 35 37 34 35 36 31 35 34 30 30 31 32 32
42 42 43 42 42 42 43 43 43 43 43 44 45 45 45 46 46 46 44 43 41 38 33 32 35 35 37 38 39 40 40 40 40 40 39 38 36 39 35 36 36 36 38 36 33 34 35 34 32 32 32 31 29 27
43 42 43 43 44 44 43 43 43 43 43 44 44 45 45 45 46 45 45 44 43 37 31 29 34 36 37 37 38 39 39 38 39 37 36 35 36 36 34 33 32 38 36 34 34 35 35 32 33 32 30 29 26 23
43 43 43 43 43 44 44 44 44 43 43 44 44 45 45 45 45 44 38 44 43 38 29 26 32 35 36 38 38 37 39 39 39 37 36 35 36 36 33 30 33 36 38 37 35 34 33 33 30 27 25 24 21 18
43 43 43 43 44 45 44 44 43 43 44 44 44 44 45 45 44 40 34 40 43 38 33 28 27 34 36 36 35 36 37 36 36 35 33 33 33 35 31 30 34 33 36 33 33 30 27 29 26 24 24 18 14 13
42 42 43 43 43 44 44 43 43 43 44 44 44 44 45 45 44 41 42 44 40 37 36 27 25 29 36 32 31 35 33 34 34 34 32 31 32 32 28 31 31 28 31 31 31 29 28 26 24 24 20 15 13 12
42 42 43 43 43 43 43 43 43 43 43 44 43 44 45 43 38 40 44 41 42 37 30 27 24 23 35 32 33 32 34 29 33 31 30 31 29 27 29 30 29 30 29 27 27 26 24 22 21 22 18 16 14 12
43 43 43 43 43 44 44 43 43 44 44 44 43 40 32 38 44 43 41 37 37 35 29 25 28 26 31 31 30 30 31 29 25 28 31 28 27 28 29 30 30 30 27 26 24 22 21 18 17 18 16 16 14 13
43 43 43 43 44 44 44 44 45 45 45 39 32 32 37 44 38 35 30 30 30 29 30 27 28 27 33 27 29 31 27 27 24 25 26 24 23 26 28 29 30 28 26 25 24 23 22 17 15 15 17 16 14 13
43 43 43 43 44 44 44 44 45 44 39 35 36 40 40 35 31 29 27 29 29 27 28 27 28 29 31 30 29 29 26 26 22 28 26 21 23 27 29 30 30 27 25 24 23 22 20 16 15 17 18 16 12 11
42 41 41 43 43 45 44 45 43 41 40 38 35 31 32 30 26 24 22 25 25 29 29 30 28 31 33 32 28 27 25 24 28 24 21 22 27 31 31 30 28 26 23 21 20 19 18 17 16 16 17 18 14 11
42 43 43 43 45 45 43 42 42 40 37 32 29 25 26 24 26 26 24 26 29 29 30 29 30 30 31 29 28 25 26 27 23 20 19 24 27 31 29 27 23 20 18 17 17 18 16 15 14 15 16 18 11 11
43 43 44 45 44 42 42 42 41 38 34 31 28 23 26 25 26 26 28 30 30 30 29 29 29 29 28 27 27 25 24 21 22 20 22 24 30 29 26 23 20 18 16 15 15 16 15 14 13 14 17 14 11 11
44 43 42 42 42 42 42 40 38 37 33 29 26 25 26 26 27 28 28 29 31 30 30 29 27 26 26 25 24 22 21 19 21 25 29 30 28 27 24 21 19 17 15 15 14 15 14 13 13 15 14 11 10 10
40 39 42 42 41 40 39 37 35 33 31 29 27 28 27 27 27 28 30 30 32 29 26 29 26 24 27 24 23 24 22 22 23 29 31 29 27 25 23 21 19 18 16 14 13 13 12 14 14 12 10 10 11 11
39 41 42 41 40 38 37 36 34 32 29 31 29 29 30 29 29 30 31 32 31 29 29 27 27 26 23 22 22 24 25 30 30 30 29 27 26 24 22 21 20 18 15 13 13 13 14 14 11 11 13 12 14 14
41 41 41 40 38 35 33 33 35 29 30 32 32 31 31 31 32 33 33 32 33 31 29 27 24 23 22 24 21 26 30 30 28 27 27 26 25 23 22 21 19 17 14 14 13 13 14 13 13 13 14 13 11 13
40 41 40 40 38 35 32 32 36 32 29 31 33 32 32 32 34 34 34 34 33 31 29 27 25 27 28 30 31 30 30 29 26 24 24 23 22 21 20 19 17 16 15 15 14 14 14 13 13 13 13 12 11 13
38 38 38 38 35 34 33 32 32 32 32 30 32 31 30 32 31 31 31 33 32 31 30 31 30 29 30 30 31 30 28 27 26 24 22 21 21 19 18 17 16 16 15 14 12 12 12 12 13 14 12 10 11 13
37 36 35 36 34 33 31 32 32 34 31 31 30 31 29 28 28 30 32 30 30 31 31 29 28 28 28 29 28 28 27 26 24 22 21 20 18 17 16 16 15 15 14 13 12 12 12 13 14 14 11 10 13 13
34 32 31 34 31 31 29 33 30 31 28 28 30 27 27 27 30 32 28 30 30 30 30 29 28 27 26 25 25 25 24 23 22 21 20 19 18 17 16 16 16 14 13 13 14 12 12 13 13 12 11 11 12 8
30 28 27 26 27 26 31 28 31 29 29 28 26 24 25 27 29 26 24 28 28 29 28 27 26 25 25 24 23 23 23 22 20 19 19 17 17 16 16 16 15 15 14 15 13 12 12 12 12 11 10 11 10 8
17 20 22 21 25 22 24 25 25 24 24 24 21 21 22 24 24 22 22 27 28 27 27 27 26 26 24 23 23 22 22 21 20 18 18 17 16 16 16 16 15 15 16 13 11 10 10 10 10 10 10 10 11 10
15 20 16 21 22 19 22 22 23 22 22 21 21 23 23 19 18 18 22 27 27 26 26 26 25 24 24 23 22 21 21 21 20 18 18 17 16 15 14 13 13 14 16 14 11 10 10 9 9 10 10 10 9 9
17 19 24 27 25 24 22 23 23 21 19 17 21 21 17 11 15 22 27 28 27 26 26 26 25 24 23 22 22 22 21 20 19 18 19 18 17 16 15 12 11 13 16 14 12 11 10 10 10 10 10 8 7 9
24 24 22 22 22 22 19 20 19 19 22 23 20 17 15 15 20 26 28 28 27 27 26 25 25 24 22 21 20 18 17 17 17 16 16 15 14 14 14 14 14 16 15 13 12 11 11 11 11 10 10 10 9 7
24 23 18 17 18 21 23 22 23 25 27 21 20 20 21 23 23 26 28 28 27 25 23 21 19 18 17 16 16 17 17 17 15 14 13 12 13 13 11 12 12 13 12 12 12 11 11 10 10 10 10 9 7 5
22 21 17 18 17 18 20 23 23 24 24 24 24 23 22 22 24 27 28 26 25 23 21 20 18 17 16 16 15 15 13 12 14 13 11 11 12 11 11 10 10 10 11 11 11 12 11 9 7 7 8 8 8 8
21 19 20 19 18 21 24 25 24 22 21 21 20 19 20 22 24 25 25 25 22 21 20 18 16 15 15 14 14 13 13 12 10 10 10 10 10 11 10 10 9 10 11 11 11 10 9 9 9 9 8 8 6 5
17 17 17 18 20 24 24 23 22 22 23 22 22 20 18 18 17 22 24 26 25 23 20 18 18 16 14 14 13 13 14 13 9 8 7 8 10 10 9 8 9 9 10 10 10 9 9 8 7 6 5 5 6 8
18 17 18 19 20 20 20 19 20 20 19 19 19 19 16 14 15 18 23 25 26 24 21 19 18 16 17 19 19 15 12 10 10 11 9 9 9 10 9 9 9 9 10 9 8 7 7 7 7 7 8 8 8 7
Wind_Speed
42 42 42 42 41 41 40 40 39 39 39 38 38 36 34 33 35 30 7 14 17 9 4 1 2 1 2 7 10 7 8 2 3 9 6 8 8 8 7 5 6 10 8 8 5 7 15 3 2 7 1 1 3 5
41 41 42 42 42 42 41 42 41 41 40 40 39 38 35 34 35 34 9 12 7 8 3 1 2 1 2 1 7 8 7 8 13 8 7 5 6 4 7 8 3 7 11 6 13 10 3 2 4 1 2 3 4 9
39 40 40 41 40 41 42 43 43 42 41 40 39 39 37 36 36 36 13 17 11 8 2 3 6 2 3 3 2 6 2 1 1 1 3 2 7 4 6 9 7 2 2 4 0 5 9 5 1 2 5 11 12 11
39 39 38 40 41 42 43 44 45 44 42 40 39 38 37 36 38 38 16 17 22 5 6 5 1 2 1 4 4 5 6 4 3 1 2 4 5 5 5 5 6 4 8 5 8 6 4 5 7 12 15 15 14 12
38 40 39 38 38 40 43 45 45 44 42 40 40 39 38 38 38 32 11 17 23 9 9 7 2 3 3 4 3 3 4 3 2 2 5 6 3 5 4 3 7 9 12 11 15 13 6 7 13 14 15 13 12 14
35 35 36 36 34 37 43 44 44 42 42 40 39 39 38 38 38 26 6 17 26 19 5 6 0 2 2 4 7 7 6 5 5 5 4 2 1 4 7 7 5 18 11 12 9 10 10 17 12 12 16 13 12 13
36 36 36 34 32 37 43 42 43 43 40 38 38 37 38 37 28 19 9 7 26 17 5 6 6 4 6 5 2 3 4 3 6 4 5 4 6 6 5 16 6 16 16 11 21 21 11 12 9 13 16 15 14 13
37 38 37 36 36 36 36 40 40 40 40 38 37 37 36 35 24 10 3 31 31 13 7 8 5 6 7 5 5 2 5 4 4 4 2 4 3 6 9 15 13 5 15 17 15 4 13 17 18 16 16 16 14 11
39 40 37 37 37 38 38 39 40 40 40 39 37 37 26 18 7 10 22 35 8 6 11 7 15 10 9 5 5 4 4 6 5 8 8 11 9 14 16 15 17 19 16 18 13 18 20 22 18 17 16 13 13 11
39 41 40 38 37 39 38 40 41 41 41 39 31 9 6 15 30 28 12 14 6 3 4 5 7 8 10 5 6 8 6 7 8 11 9 10 15 15 14 17 21 23 24 27 24 16 16 17 19 18 16 13 13 11
38 41 38 37 37 40 40 39 42 42 43 12 7 5 11 37 8 5 8 9 7 9 9 7 7 16 5 11 7 6 5 5 5 8 13 6 8 13 21 19 23 23 26 22 11 18 19 22 23 19 16 15 13 11
42 40 38 36 38 37 41 42 43 27 10 14 15 13 9 7 5 8 10 8 6 9 8 15 10 8 7 5 5 8 5 6 7 11 6 6 9 10 17 24 26 26 24 18 18 22 20 20 19 18 17 16 12 9
41 38 36 38 37 37 46 43 32 35 37 20 9 5 6 4 7 11 11 7 11 10 10 12 13 8 6 4 5 6 8 9 9 8 6 12 4 14 19 22 22 20 21 22 21 20 20 19 17 17 17 14 11 8
38 36 37 37 38 40 43 44 45 28 11 4 6 7 6 6 7 7 12 15 9 16 25 26 13 7 6 8 6 7 8 6 6 6 11 9 21 21 19 20 24 23 24 23 24 23 22 20 18 15 14 14 11 9
36 36 37 34 43 45 47 40 22 9 4 6 6 5 5 6 5 8 13 14 7 19 25 16 8 6 6 6 7 5 6 7 10 10 10 15 16 23 23 23 23 23 23 22 22 22 21 20 19 16 14 12 10 11
32 42 30 50 46 42 33 18 8 4 4 4 4 4 7 13 10 8 13 19 16 24 16 7 7 6 7 7 8 9 7 10 7 9 5 15 23 24 25 25 24 22 21 21 20 21 20 20 18 17 13 11 12 11
21 15 43 41 38 31 23 9 6 6 5 4 3 3 4 7 12 9 14 13 25 24 13 8 11 12 7 6 7 9 10 10 11 7 11 17 25 27 25 24 24 22 21 20 20 19 18 15 17 16 14 11 10 8
33 35 39 36 26 19 6 7 5 4 4 3 3 5 2 5 14 11 10 25 16 8 11 7 8 7 10 11 8 10 8 2 6 11 14 19 22 24 24 26 23 22 22 20 20 18 17 18 17 14 13 13 10 8
29 29 32 19 11 8 5 3 2 5 3 4 4 4 4 5 4 12 13 21 6 8 14 9 5 8 8 9 9 12 13 10 12 12 15 18 21 24 23 22 22 20 21 21 20 17 16 15 15 14 14 13 11 9
28 25 20 17 8 5 5 3 2 4 4 3 4 5 5 4 6 11 19 9 6 7 3 4 8 5 3 1 2 7 14 17 22 22 16 15 17 23 24 24 20 20 19 17 15 16 15 12 12 13 13 12 11 10
16 6 12 6 4 6 5 4 3 4 5 5 5 5 4 5 9 8 8 6 6 7 7 6 3 4 3 4 8 14 17 19 18 14 25 23 17 19 19 17 20 18 19 17 18 15 16 16 14 13 13 11 9 9
4 8 5 7 5 4 5 5 6 6 3 6 4 4 6 5 5 5 7 2 7 4 4 5 5 6 8 9 11 14 16 16 17 20 20 22 18 19 19 19 20 18 17 18 17 18 15 14 14 13 12 11 8 7
6 4 5 4 4 4 3 2 3 2 5 6 4 5 3 3 4 5 3 3 3 1 2 5 8 10 13 14 16 15 17 21 20 19 18 16 15 16 17 15 16 20 18 15 15 16 16 15 15 14 11 10 10 8
5 4 3 3 3 4 4 2 2 4 4 4 4 5 4 4 4 2 3 4 4 5 7 13 15 15 14 14 14 14 13 17 19 15 15 20 19 14 14 15 14 13 14 15 15 15 16 16 15 13 13 11 11 10
4 2 2 3 2 5 4 5 3 3 3 4 5 4 5 4 3 3 4 4 9 9 11 11 12 12 13 12 12 12 11 17 21 21 11 14 18 15 12 11 11 13 14 18 16 17 16 16 15 15 14 13 13 12
3 1 1 2 3 3 6 5 5 6 6 3 4 5 3 4 4 4 4 6 8 10 15 17 16 16 12 9 16 15 12 13 16 16 11 15 17 21 20 19 16 11 11 15 18 17 17 17 17 15 15 14 11 11
3 2 2 3 1 5 5 4 4 6 4 5 7 6 5 6 6 2 0 4 6 8 12 13 13 13 17 15 13 13 13 10 10 11 12 12 12 14 21 22 20 14 16 16 17 18 20 19 18 17 16 12 13 13
2 2 5 2 5 5 4 4 3 3 4 5 7 3 4 4 3 3 3 2 15 18 14 12 11 14 15 16 17 18 15 16 18 19 18 13 8 7 10 10 11 16 16 16 17 15 16 17 18 17 16 16 14 12
3 2 5 8 5 6 6 4 2 2 2 3 5 4 4 3 5 4 4 9 14 19 17 16 13 16 17 16 13 13 17 20 23 19 17 14 9 7 7 11 13 13 14 15 11 12 13 13 14 15 15 13 10 6
2 2 5 5 5 5 5 5 2 3 5 4 6 6 5 4 10 9 8 10 13 17 15 16 18 19 20 20 17 10 4 2 8 15 18 17 15 10 16 15 15 15 15 16 15 13 12 10 9 6 6 6 6 6
3 4 5 5 5 3 5 9 14 11 4 10 14 13 8 5 6 15 16 9 12 15 18 17 13 13 20 19 19 17 12 3 6 8 7 9 13 16 17 16 15 16 16 17 17 14 11 9 8 9 9 9 9 9
4 3 7 6 6 3 3 5 6 6 6 7 7 6 4 6 7 9 13 9 8 10 7 15 18 14 10 10 8 4 6 14 13 11 11 12 13 15 15 15 16 16 17 16 15 13 11 11 10 10 10 10 10 10
5 9 11 8 4 4 3 5 5 5 9 6 7 6 5 4 5 5 9 11 6 7 11 13 14 15 15 15 12 10 10 12 11 10 10 13 16 18 16 16 16 16 16 15 14 12 11 10 10 10 10 10 10 10
Wind_Direction
220 218 217 217 214 211 211 209 207 204 202 200 201 205 208 203 201 194 180 181 184 188 214 189 357 245 86 164 173 160 137 181 167 203 206 218 236 224 247 213 199 200 207 199 202 234 275 40 112 202 166 69 80 89
217 216 214 214 212 211 208 207 206 204 200 198 199 202 206 202 199 194 203 174 125 193 182 69 91 348 35 65 145 173 170 169 197 195 219 213 220 208 216 248 210 233 209 233 207 225 128 52 124 9 290 108 80 93
214 213 214 211 209 210 206 204 203 203 200 197 198 199 201 202 198 191 186 163 159 158 93 168 206 232 318 62 56 150 190 137 158 52 197 178 243 152 220 238 239 270 119 235 311 229 216 201 218 22 103 117 100 101
213 213 212 212 211 212 207 203 201 200 200 198 197 198 199 199 195 189 187 178 171 145 167 198 259 206 116 81 70 58 106 80 81 200 244 221 224 198 238 268 224 189 152 219 242 256 179 247 202 134 112 110 112 93
209 207 206 206 207 208 205 201 197 195 197 196 195 196 195 194 192 186 167 179 181 152 168 157 137 189 153 151 144 140 114 70 14 280 211 229 184 222 210 258 233 184 208 222 251 216 188 162 148 140 133 132 128 117
201 198 198 198 201 204 197 189 187 188 192 191 191 192 190 187 183 174 155 187 185 179 124 152 9 132 169 196 168 180 176 152 207 234 224 222 321 219 249 251 234 207 209 218 239 137 133 131 127 131 122 124 114 113
195 195 194 189 186 187 179 182 181 184 186 186 187 187 185 180 177 185 183 172 170 165 124 131 148 174 158 127 108 111 121 183 184 219 217 191 207 211 254 261 250 233 210 153 128 113 110 147 162 139 131 125 117 110
194 190 187 183 181 180 177 179 180 181 181 181 183 181 177 174 171 175 217 156 152 154 141 150 128 143 179 158 166 158 147 161 211 213 143 209 196 219 250 234 244 187 144 147 157 102 147 133 134 136 132 134 131 130
188 182 180 181 180 177 177 176 176 177 177 176 178 170 160 175 147 151 155 159 118 143 160 147 149 171 168 138 129 140 175 194 174 212 210 172 205 223 222 232 184 168 166 151 117 118 136 145 146 147 149 150 144 149
185 175 176 178 175 174 175 174 174 172 173 165 159 159 142 143 127 119 128 178 168 165 128 135 130 136 156 137 168 152 183 213 201 219 157 219 245 232 226 213 184 168 150 139 131 149 152 155 160 163 167 163 159 155
166 168 169 170 170 171 170 165 164 160 156 150 125 134 146 137 102 104 158 170 166 163 159 139 139 135 205 162 163 200 196 197 231 202 190 231 256 228 211 195 169 160 160 170 156 165 169 162 162 161 159 160 156 150
162 158 157 160 160 162 161 162 159 155 130 142 128 117 128 102 137 148 176 154 155 163 145 137 141 123 156 138 134 178 208 186 246 151 202 250 244 217 178 170 165 161 165 153 149 149 148 151 154 154 159 159 154 152
145 149 156 154 155 159 154 153 137 125 119 120 107 130 159 160 145 165 157 157 148 143 152 142 130 128 133 161 138 172 204 227 136 187 227 232 226 180 168 157 155 153 143 133 135 135 138 142 146 154 156 156 152 128
140 145 146 150 156 142 133 129 133 127 99 113 113 152 152 155 182 172 146 133 151 151 150 150 129 137 144 167 155 179 209 166 219 227 236 213 212 186 160 152 144 148 141 144 142 143 146 148 152 150 150 158 140 154
138 140 140 140 136 129 132 143 138 117 107 107 156 152 156 134 101 153 120 113 112 142 141 130 95 122 140 153 191 172 192 228 219 233 222 223 171 157 155 152 147 144 144 148 148 150 150 149 149 150 154 142 145 146
126 134 136 126 128 131 133 123 96 82 70 68 82 96 106 116 128 115 111 126 135 144 132 107 137 158 187 182 174 201 183 218 238 221 227 147 151 154 154 151 150 150 150 148 150 150 148 151 155 154 138 145 154 158
97 128 127 123 120 117 109 84 49 43 72 54 67 94 122 113 145 140 132 140 153 145 159 139 170 195 125 176 199 185 212 224 225 200 164 162 157 154 149 146 143 147 147 149 145 146 147 147 140 140 154 159 157 172
116 119 122 122 117 93 59 45 78 78 77 97 133 187 117 102 135 128 121 152 160 167 148 167 132 174 181 181 212 213 203 147 136 143 146 148 148 148 148 145 147 149 147 148 146 143 148 152 154 162 159 161 163 167
114 113 113 107 98 89 87 70 49 96 97 127 106 106 86 103 111 128 132 166 101 110 124 152 186 191 206 209 213 191 180 162 151 136 137 139 144 145 142 141 143 146 147 147 148 154 158 158 163 162 158 160 178 185
83 78 82 72 82 77 84 82 42 85 122 123 96 101 88 102 117 136 147 135 118 138 199 213 217 204 212 317 222 176 147 141 134 131 135 137 142 139 143 146 148 145 138 136 137 138 141 147 157 157 161 169 178 193
86 61 62 61 59 76 99 121 97 115 117 106 116 98 98 100 128 138 149 131 159 193 197 221 243 292 277 246 144 134 145 150 166 162 157 147 146 138 135 135 136 140 146 150 153 160 163 170 164 159 162 173 189 192
85 65 68 33 64 55 85 36 115 117 96 110 95 91 105 121 136 142 135 155 170 169 180 173 167 151 129 126 125 136 140 130 124 121 123 135 142 141 144 145 145 150 154 158 163 170 172 162 158 159 164 178 181 187
97 68 50 56 77 57 82 56 97 138 123 127 122 110 114 125 141 137 121 162 141 170 145 109 110 117 117 113 114 116 126 128 129 134 133 126 127 130 136 145 149 151 159 168 162 163 165 161 160 162 165 173 181 192
51 81 114 121 117 116 130 125 112 101 108 131 119 119 129 136 138 110 170 164 137 137 130 127 126 121 119 123 125 124 124 125 120 114 128 133 136 140 142 147 152 155 161 156 160 162 161 161 161 168 175 186 194 207
129 43 116 111 99 125 120 132 138 118 122 153 119 126 145 142 127 199 213 177 153 145 141 144 144 147 144 130 121 121 128 136 139 138 138 130 124 122 133 143 152 158 152 154 166 165 165 164 173 179 188 199 207 216
90 44 86 142 144 135 146 138 159 136 131 114 99 121 120 117 165 216 224 180 157 157 166 163 148 135 132 137 139 139 134 126 126 131 141 149 151 157 163 165 167 184 187 174 162 169 174 181 186 192 204 211 215 219
107 117 89 27 92 114 106 87 106 112 141 149 155 139 140 172 203 218 310 149 136 153 157 150 148 142 140 130 113 115 119 114 124 137 138 145 152 164 164 170 184 191 174 173 168 173 184 191 197 202 212 213 217 216
106 65 148 59 80 43 113 100 134 132 155 152 128 102 131 146 133 342 13 50 124 118 109 98 105 121 127 127 126 123 107 104 101 100 93 77 74 113 134 129 137 154 166 170 172 173 184 192 199 205 210 218 227 219
74 84 89 65 63 55 43 47 65 43 32 94 109 111 104 58 356 348 30 111 117 120 121 117 98 102 100 99 101 115 132 137 136 147 160 163 165 179 153 146 143 150 153 154 154 172 184 192 198 202 208 213 225 210
104 95 94 65 55 46 4 351 52 28 32 79 108 105 75 52 11 23 87 111 134 140 138 137 139 136 141 141 141 134 87 121 173 164 176 189 192 171 168 165 158 155 150 147 140 123 111 117 117 123 153 172 187 203
119 107 88 76 85 85 89 83 75 69 62 71 73 92 97 118 56 34 37 61 106 120 126 131 125 135 146 152 157 159 172 186 152 139 131 140 157 166 172 170 160 152 149 151 153 155 155 164 178 185 195 211 221 226
49 93 126 114 127 141 41 51 56 59 51 58 46 52 57 63 59 34 3 18 103 124 125 148 150 156 140 131 135 159 185 166 167 157 148 151 160 160 153 148 145 144 148 152 157 162 172 185 193 204 215 224 232 241
64 74 87 96 89 91 42 89 72 58 36 43 39 47 52 63 64 352 339 9 51 128 141 137 130 136 135 122 120 122 137 149 151 149 143 146 149 147 143 143 144 146 150 157 165 170 180 188 204 213 226 235 245 254